Софиевка / Карло-Марксово

Украина / Донецкая область     48°15′36″N   38°09′31″E
темп.,
°C
ветер,
м/с
пор.,
м/с
влажн.,
%
обл.,
%
осадки,
мм/ч
давл.,
гПа
погр.,
м
6 мая, чт
чт600:00+10ююв235713 0.0 101785
03:00+9юв355677 0.0 1016116
06:00+9юв3965100 0.0 1016244
09:00+13юв595366 0.0 1015735
12:00+17ююв6743100 0.0 10141688
15:00+19ю5538100 0.0 10131913
18:00+17ююв4545100 0.0 1013878
21:00+14ю235639 0.0 101381
7 мая, пт
пт700:00+13ю2259100 0.0 101330
03:00+12з246599 0.0 1014108
06:00+12сз1174100 0.0 101552
09:00+15с326533 0.0 1016527
12:00+19зюз234646 0.0 10161660
15:00+20зсз3445100 0.0 10151635
18:00+17вюв2363100 0.2 1015275
21:00+15ю3766100 0.3 1016277
8 мая, сб
сб800:00+12ю3670100 0.0 1015177
03:00+11ю3107196 0.0 1015293
06:00+11ю41276100 0.0 1015373
09:00+15ю5958100 0.0 1014453
12:00+18ю7951100 0.0 1012962
15:00+20ю7943100 0.0 10111435
18:00+19ююз684613 0.0 10101013
21:00+13сз4677100 0.0 1011270
9 мая, вс
вс900:00+9ссз81180100 0.0 1012655
03:00+6с91489100 1.0 1013862
06:00+4с71593100 6.7 1014850
09:00+7сз71183100 7.9 10161130
12:00+11ссз8115148 0.1 10171967
15:00+12сз8104772 0.3 10191990
18:00+11сз7105148 0.2 10201697
21:00+8ссз410755 0.3 1023696
10 мая, пн
пн1000:00+6сз410751 0.0 1024418
03:00+6зсз411775 0.0 1024356
06:00+6сз412745 0.0 1024383
09:00+11ссз710482 0.0 10231722
12:00+13ссз81138100 0.0 10212781
15:00+12ссз91249100 0.1 10201935
18:00+9ссз7157595 0.7 10191480
21:00+6ссз81290100 1.4 10181012